Regional Weather Roundup
Issued by NWS

Home | Current Version | Previous Version | Graphics & Text | Print | Product List | Glossary On
Versions: 1 2 3 4 5 6 7 8 9 10 11 12 13 14 15 16 17 18 19 20 21 22 23 24 25 26 27 28 29 30 31 32 33 34 35 36 37 38 39 40 41 42 43 44 45 46 47 48 49 50
000
ASUS43 KTOP 222208
RWRKS

WEATHER ROUNDUP FOR KANSAS
NATIONAL WEATHER SERVICE GOODLAND KS
500 PM CDT FRI AUG 22 2014

NOTE:  "FAIR" INDICATES FEW OR NO CLOUDS BELOW 12,000 FEET WITH NO
SIGNIFICANT WEATHER AND/OR OBSTRUCTIONS TO VISIBILITY.

KSZ001>006-013>018-027>032-041>047-222300-
NORTHWEST KANSAS

CITY           SKY/WX    TMP DP  RH WIND       PRES   REMARKS
GOODLAND       PTSUNNY   87  63  44 E16G25    29.96F
HAYS           MOSUNNY   99  66  34 SE13G18   29.84F HX 102
HILL CITY      MOSUNNY   91  67  44 E10       29.91S
RUSSELL        MOSUNNY   99  63  30 S20G25    29.82F HX 101
$$

KSZ061>065-074>080-084>089-222300-
SOUTHWEST KANSAS

CITY           SKY/WX    TMP DP  RH WIND       PRES   REMARKS
DODGE CITY     LGT RAIN  80  65  59 VRB6      29.88F
ELKHART          N/A     97  55  24 S16         N/A  HX  95
GARDEN CITY    CLOUDY    79  69  71 VRB3      29.91R THUNDER
GREAT BEND     MOSUNNY   99  64  32 S14       29.83F HX 101
LIBERAL        MOSUNNY  100  55  22 S18G29    29.87F HX  99
PRATT          PTSUNNY   82  64  54 W6        29.88F
$$

KSZ066>073-081>083-090>101-222300-
SOUTHEAST KANSAS

CITY           SKY/WX    TMP DP  RH WIND       PRES   REMARKS
CHANUTE        MOSUNNY   99  69  37 S17       29.91S HX 105
COFFEYVILLE    SUNNY     99  72  41 S15       29.89F HX 108
HUTCHINSON     SUNNY    102  64  28 S14G23    29.84F HX 105
MEDICINE LODGE   N/A    102  61  25 S16G25    29.81F HX 103
NEWTON         MOSUNNY   99  64  32 S20G30    29.91S HX 101
PARSONS        SUNNY     98  71  41 S12       29.92F HX 106
WICHITA INTL   MOSUNNY   99  65  32 S16       29.85F HX 102
WICHITA JABRA  SUNNY     98  67  36 S22G28    29.87S HX 102
WICHITA MCCONL SUNNY     98  65  33 SE18G26   29.88S HX 101
WINFIELD       SUNNY     99  68  36 S17G23    29.89F HX 104
$$

KSZ007>012-019>026-033>040-048>060-102>105-222300-
NORTHEAST KANSAS

CITY           SKY/WX    TMP DP  RH WIND       PRES   REMARKS
CONCORDIA      MOSUNNY   88  75  65 SE9       29.87F HX  97
EMPORIA        CLOUDY    76  65  68 S26G40    29.93R
LAWRENCE       PTSUNNY   99  69  37 W6        29.89F HX 105
MANHATTAN      CLOUDY    92  67  43 S9        29.87S HX  95
MARYSVILLE     CLOUDY    82  72  69 CALM      29.87F
OLATHE IND     PTSUNNY   95  72  47 SW6       29.90F HX 103
OLATHE EXE     PTSUNNY   91  75  59 S7        29.90S HX 101
SALINA         MOSUNNY   97  70  41 SE13      29.84F HX 103
TOPEKA BILLARD CLOUDY    93  70  46 CALM      29.90S HX  99
TOPEKA FORBES  CLOUDY    91  68  46 S7        29.91S HX  95
$$



USA.gov is the U.S. government's official web portal to all federal, state and local government web resources and services.